#datetime,building,power
2024-02-18T00:00:00,mfh,20.08
2024-02-18T00:01:00,mfh,18.14
2024-02-18T00:02:00,mfh,18.59
2024-02-18T00:03:00,mfh,18.12
2024-02-18T00:04:00,mfh,18.71
2024-02-18T00:05:00,mfh,18.77
2024-02-18T00:06:00,mfh,18.93
2024-02-18T00:07:00,mfh,18.85
2024-02-18T00:08:00,mfh,19.61
2024-02-18T00:09:00,mfh,19.14
2024-02-18T00:10:00,mfh,19.44
2024-02-18T00:11:00,mfh,18.67
2024-02-18T00:12:00,mfh,18.57
2024-02-18T00:13:00,mfh,18.55
2024-02-18T00:14:00,mfh,18.95
2024-02-18T00:15:00,mfh,18.82
2024-02-18T00:16:00,mfh,18.88
2024-02-18T00:17:00,mfh,18.86
2024-02-18T00:18:00,mfh,18.74
2024-02-18T00:19:00,mfh,18.73
2024-02-18T00:20:00,mfh,17.96
2024-02-18T00:21:00,mfh,18.03
2024-02-18T00:22:00,mfh,18.68
2024-02-18T00:23:00,mfh,18.11
2024-02-18T00:24:00,mfh,18.80
2024-02-18T00:25:00,mfh,19.54
2024-02-18T00:26:00,mfh,18.65
2024-02-18T00:27:00,mfh,18.51
2024-02-18T00:28:00,mfh,18.47
2024-02-18T00:29:00,mfh,18.59
2024-02-18T00:30:00,mfh,18.61
2024-02-18T00:31:00,mfh,17.93
2024-02-18T00:32:00,mfh,17.92
2024-02-18T00:33:00,mfh,17.96
2024-02-18T00:34:00,mfh,18.95
2024-02-18T00:35:00,mfh,19.00
2024-02-18T00:36:00,mfh,19.12
2024-02-18T00:37:00,mfh,18.97
2024-02-18T00:38:00,mfh,19.21
2024-02-18T00:39:00,mfh,19.08
2024-02-18T00:40:00,mfh,18.17
2024-02-18T00:41:00,mfh,18.80
2024-02-18T00:42:00,mfh,19.01
2024-02-18T00:43:00,mfh,18.34
2024-02-18T00:44:00,mfh,18.91
2024-02-18T00:45:00,mfh,18.78
2024-02-18T00:46:00,mfh,18.94
2024-02-18T00:47:00,mfh,18.89
2024-02-18T00:48:00,mfh,19.41
2024-02-18T00:49:00,mfh,20.61
2024-02-18T00:50:00,mfh,19.42
2024-02-18T00:51:00,mfh,18.23
2024-02-18T00:52:00,mfh,18.30
2024-02-18T00:53:00,mfh,19.10
2024-02-18T00:54:00,mfh,18.99
2024-02-18T00:55:00,mfh,18.82
2024-02-18T00:56:00,mfh,18.85
2024-02-18T00:57:00,mfh,19.06
2024-02-18T00:58:00,mfh,19.68
2024-02-18T00:59:00,mfh,19.09
2024-02-18T01:00:00,mfh,18.95
2024-02-18T01:01:00,mfh,18.29
2024-02-18T01:02:00,mfh,18.39
2024-02-18T01:03:00,mfh,18.44
2024-02-18T01:04:00,mfh,18.84
2024-02-18T01:05:00,mfh,19.37
2024-02-18T01:06:00,mfh,18.94
2024-02-18T01:07:00,mfh,20.52
2024-02-18T01:08:00,mfh,19.49
2024-02-18T01:09:00,mfh,19.54
2024-02-18T01:10:00,mfh,19.77
2024-02-18T01:11:00,mfh,19.76
2024-02-18T01:12:00,mfh,19.19
2024-02-18T01:13:00,mfh,18.91
2024-02-18T01:14:00,mfh,18.36
2024-02-18T01:15:00,mfh,18.98
2024-02-18T01:16:00,mfh,19.45
2024-02-18T01:17:00,mfh,18.83
2024-02-18T01:18:00,mfh,18.88
2024-02-18T01:19:00,mfh,18.84
2024-02-18T01:20:00,mfh,18.99
2024-02-18T01:21:00,mfh,18.34
2024-02-18T01:22:00,mfh,18.46
2024-02-18T01:23:00,mfh,18.97
2024-02-18T01:24:00,mfh,18.35
2024-02-18T01:25:00,mfh,19.43
2024-02-18T01:26:00,mfh,19.04
2024-02-18T01:27:00,mfh,19.06
2024-02-18T01:28:00,mfh,19.14
2024-02-18T01:29:00,mfh,19.16
2024-02-18T01:30:00,mfh,19.12
2024-02-18T01:31:00,mfh,19.16
2024-02-18T01:32:00,mfh,18.45
2024-02-18T01:33:00,mfh,19.83
2024-02-18T01:34:00,mfh,18.58
2024-02-18T01:35:00,mfh,19.52
2024-02-18T01:36:00,mfh,18.82
2024-02-18T01:37:00,mfh,18.84
2024-02-18T01:38:00,mfh,18.68
2024-02-18T01:39:00,mfh,18.75
2024-02-18T01:40:00,mfh,18.84
2024-02-18T01:41:00,mfh,19.21
2024-02-18T01:42:00,mfh,18.25
2024-02-18T01:43:00,mfh,18.94
2024-02-18T01:44:00,mfh,18.71
2024-02-18T01:45:00,mfh,19.04
2024-02-18T01:46:00,mfh,19.08
2024-02-18T01:47:00,mfh,18.82
2024-02-18T01:48:00,mfh,18.73
2024-02-18T01:49:00,mfh,19.74
2024-02-18T01:50:00,mfh,18.78
2024-02-18T01:51:00,mfh,19.44
2024-02-18T01:52:00,mfh,19.07
2024-02-18T01:53:00,mfh,18.48
2024-02-18T01:54:00,mfh,19.23
2024-02-18T01:55:00,mfh,18.30
2024-02-18T01:56:00,mfh,18.89
2024-02-18T01:57:00,mfh,19.35
2024-02-18T01:58:00,mfh,18.98
2024-02-18T01:59:00,mfh,18.67
2024-02-18T02:00:00,mfh,18.82
2024-02-18T02:01:00,mfh,18.80
2024-02-18T02:02:00,mfh,18.30
2024-02-18T02:03:00,mfh,18.30
2024-02-18T02:04:00,mfh,18.29
2024-02-18T02:05:00,mfh,18.88
2024-02-18T02:06:00,mfh,19.04
2024-02-18T02:07:00,mfh,18.92
2024-02-18T02:08:00,mfh,20.38
2024-02-18T02:09:00,mfh,19.14
2024-02-18T02:10:00,mfh,19.08
2024-02-18T02:11:00,mfh,18.85
2024-02-18T02:12:00,mfh,18.82
2024-02-18T02:13:00,mfh,18.14
2024-02-18T02:14:00,mfh,18.17
2024-02-18T02:15:00,mfh,18.17
2024-02-18T02:16:00,mfh,19.58
2024-02-18T02:17:00,mfh,19.01
2024-02-18T02:18:00,mfh,19.13
2024-02-18T02:19:00,mfh,19.20
2024-02-18T02:20:00,mfh,19.33
2024-02-18T02:21:00,mfh,19.44
2024-02-18T02:22:00,mfh,19.87
2024-02-18T02:23:00,mfh,18.63
2024-02-18T02:24:00,mfh,19.00
2024-02-18T02:25:00,mfh,18.51
2024-02-18T02:26:00,mfh,19.20
2024-02-18T02:27:00,mfh,20.10
2024-02-18T02:28:00,mfh,19.62
2024-02-18T02:29:00,mfh,19.47
2024-02-18T02:30:00,mfh,19.23
2024-02-18T02:31:00,mfh,19.23
2024-02-18T02:32:00,mfh,19.61
2024-02-18T02:33:00,mfh,18.29
2024-02-18T02:34:00,mfh,19.39
2024-02-18T02:35:00,mfh,18.20
2024-02-18T02:36:00,mfh,18.79
2024-02-18T02:37:00,mfh,18.77
2024-02-18T02:38:00,mfh,19.32
2024-02-18T02:39:00,mfh,18.87
2024-02-18T02:40:00,mfh,18.84
2024-02-18T02:41:00,mfh,18.80
2024-02-18T02:42:00,mfh,18.71
2024-02-18T02:43:00,mfh,18.44
2024-02-18T02:44:00,mfh,18.28
2024-02-18T02:45:00,mfh,18.50
2024-02-18T02:46:00,mfh,19.65
2024-02-18T02:47:00,mfh,19.45
2024-02-18T02:48:00,mfh,19.75
2024-02-18T02:49:00,mfh,19.55
2024-02-18T02:50:00,mfh,20.41
2024-02-18T02:51:00,mfh,19.74
2024-02-18T02:52:00,mfh,18.95
2024-02-18T02:53:00,mfh,18.94
2024-02-18T02:54:00,mfh,18.40
2024-02-18T02:55:00,mfh,18.42
2024-02-18T02:56:00,mfh,18.98
2024-02-18T02:57:00,mfh,18.93
2024-02-18T02:58:00,mfh,18.80
2024-02-18T02:59:00,mfh,19.68
2024-02-18T03:00:00,mfh,19.22
2024-02-18T03:01:00,mfh,19.18
2024-02-18T03:02:00,mfh,19.71
2024-02-18T03:03:00,mfh,18.66
2024-02-18T03:04:00,mfh,18.25
2024-02-18T03:05:00,mfh,18.14
2024-02-18T03:06:00,mfh,20.35
2024-02-18T03:07:00,mfh,20.45
2024-02-18T03:08:00,mfh,20.70
2024-02-18T03:09:00,mfh,20.79
2024-02-18T03:10:00,mfh,20.66
2024-02-18T03:11:00,mfh,18.99
2024-02-18T03:12:00,mfh,18.97
2024-02-18T03:13:00,mfh,19.13
2024-02-18T03:14:00,mfh,18.54
2024-02-18T03:15:00,mfh,18.47
2024-02-18T03:16:00,mfh,18.41
2024-02-18T03:17:00,mfh,19.04
2024-02-18T03:18:00,mfh,19.03
2024-02-18T03:19:00,mfh,19.36
2024-02-18T03:20:00,mfh,19.11
2024-02-18T03:21:00,mfh,19.05
2024-02-18T03:22:00,mfh,19.01
2024-02-18T03:23:00,mfh,18.14
2024-02-18T03:24:00,mfh,18.17
2024-02-18T03:25:00,mfh,18.34
2024-02-18T03:26:00,mfh,18.83
2024-02-18T03:27:00,mfh,19.41
2024-02-18T03:28:00,mfh,18.99
2024-02-18T03:29:00,mfh,18.94
2024-02-18T03:30:00,mfh,18.98
2024-02-18T03:31:00,mfh,19.19
2024-02-18T03:32:00,mfh,19.15
2024-02-18T03:33:00,mfh,18.98
2024-02-18T03:34:00,mfh,18.37
2024-02-18T03:35:00,mfh,18.74
2024-02-18T03:36:00,mfh,18.49
2024-02-18T03:37:00,mfh,19.13
2024-02-18T03:38:00,mfh,19.00
2024-02-18T03:39:00,mfh,19.03
2024-02-18T03:40:00,mfh,19.11
2024-02-18T03:41:00,mfh,19.14
2024-02-18T03:42:00,mfh,19.13
2024-02-18T03:43:00,mfh,18.48
2024-02-18T03:44:00,mfh,18.33
2024-02-18T03:45:00,mfh,19.38
2024-02-18T03:46:00,mfh,18.91
2024-02-18T03:47:00,mfh,18.88
2024-02-18T03:48:00,mfh,18.89
2024-02-18T03:49:00,mfh,18.91
2024-02-18T03:50:00,mfh,20.08
2024-02-18T03:51:00,mfh,19.81
2024-02-18T03:52:00,mfh,19.37
2024-02-18T03:53:00,mfh,19.16
2024-02-18T03:54:00,mfh,19.06
2024-02-18T03:55:00,mfh,19.57
2024-02-18T03:56:00,mfh,18.99
2024-02-18T03:57:00,mfh,19.05
2024-02-18T03:58:00,mfh,18.92
2024-02-18T03:59:00,mfh,19.85
2024-02-18T04:00:00,mfh,19.24
2024-02-18T04:01:00,mfh,19.33
2024-02-18T04:02:00,mfh,19.43
2024-02-18T04:03:00,mfh,19.82
2024-02-18T04:04:00,mfh,18.61
2024-02-18T04:05:00,mfh,18.45
2024-02-18T04:06:00,mfh,18.48
2024-02-18T04:07:00,mfh,18.57
2024-02-18T04:08:00,mfh,19.13
2024-02-18T04:09:00,mfh,19.01
2024-02-18T04:10:00,mfh,18.98
2024-02-18T04:11:00,mfh,19.01
2024-02-18T04:12:00,mfh,19.55
2024-02-18T04:13:00,mfh,19.04
2024-02-18T04:14:00,mfh,19.14
2024-02-18T04:15:00,mfh,18.41
2024-02-18T04:16:00,mfh,18.52
2024-02-18T04:17:00,mfh,18.48
2024-02-18T04:18:00,mfh,19.10
2024-02-18T04:19:00,mfh,19.27
2024-02-18T04:20:00,mfh,19.09
2024-02-18T04:21:00,mfh,19.15
2024-02-18T04:22:00,mfh,19.16
2024-02-18T04:23:00,mfh,19.20
2024-02-18T04:24:00,mfh,19.31
2024-02-18T04:25:00,mfh,18.39
2024-02-18T04:26:00,mfh,18.53
2024-02-18T04:27:00,mfh,18.57
2024-02-18T04:28:00,mfh,19.54
2024-02-18T04:29:00,mfh,19.89
2024-02-18T04:30:00,mfh,20.12
2024-02-18T04:31:00,mfh,19.97
2024-02-18T04:32:00,mfh,20.02
2024-02-18T04:33:00,mfh,19.80
2024-02-18T04:34:00,mfh,20.54
2024-02-18T04:35:00,mfh,18.35
2024-02-18T04:36:00,mfh,18.26
2024-02-18T04:37:00,mfh,18.76
2024-02-18T04:38:00,mfh,19.01
2024-02-18T04:39:00,mfh,18.97
2024-02-18T04:40:00,mfh,18.93
2024-02-18T04:41:00,mfh,18.97
2024-02-18T04:42:00,mfh,19.06
2024-02-18T04:43:00,mfh,19.11
2024-02-18T04:44:00,mfh,18.97
2024-02-18T04:45:00,mfh,18.43
2024-02-18T04:46:00,mfh,18.36
2024-02-18T04:47:00,mfh,18.32
2024-02-18T04:48:00,mfh,19.77
2024-02-18T04:49:00,mfh,18.95
2024-02-18T04:50:00,mfh,18.94
2024-02-18T04:51:00,mfh,18.85
2024-02-18T04:52:00,mfh,19.07
2024-02-18T04:53:00,mfh,19.05
2024-02-18T04:54:00,mfh,19.36
2024-02-18T04:55:00,mfh,18.33
2024-02-18T04:56:00,mfh,18.12
2024-02-18T04:57:00,mfh,18.39
2024-02-18T04:58:00,mfh,18.69
2024-02-18T04:59:00,mfh,19.15
2024-02-18T05:00:00,mfh,18.75
2024-02-18T05:01:00,mfh,37.17
2024-02-18T05:02:00,mfh,41.13
2024-02-18T05:03:00,mfh,41.61
2024-02-18T05:04:00,mfh,41.41
2024-02-18T05:05:00,mfh,40.48
2024-02-18T05:06:00,mfh,41.10
2024-02-18T05:07:00,mfh,39.91
2024-02-18T05:08:00,mfh,40.42
2024-02-18T05:09:00,mfh,41.25
2024-02-18T05:10:00,mfh,40.88
2024-02-18T05:11:00,mfh,41.53
2024-02-18T05:12:00,mfh,41.10
2024-02-18T05:13:00,mfh,41.34
2024-02-18T05:14:00,mfh,41.04
2024-02-18T05:15:00,mfh,41.33
2024-02-18T05:16:00,mfh,40.40
2024-02-18T05:17:00,mfh,40.23
2024-02-18T05:18:00,mfh,40.39
2024-02-18T05:19:00,mfh,40.62
2024-02-18T05:20:00,mfh,40.45
2024-02-18T05:21:00,mfh,40.48
2024-02-18T05:22:00,mfh,40.64
2024-02-18T05:23:00,mfh,40.50
2024-02-18T05:24:00,mfh,40.86
2024-02-18T05:25:00,mfh,39.89
2024-02-18T05:26:00,mfh,39.95
2024-02-18T05:27:00,mfh,40.19
2024-02-18T05:28:00,mfh,40.91
2024-02-18T05:29:00,mfh,40.84
2024-02-18T05:30:00,mfh,40.76
2024-02-18T05:31:00,mfh,40.70
2024-02-18T05:32:00,mfh,40.69
2024-02-18T05:33:00,mfh,41.66
2024-02-18T05:34:00,mfh,40.86
2024-02-18T05:35:00,mfh,41.18
2024-02-18T05:36:00,mfh,40.07
2024-02-18T05:37:00,mfh,39.96
2024-02-18T05:38:00,mfh,40.80
2024-02-18T05:39:00,mfh,40.80
2024-02-18T05:40:00,mfh,40.91
2024-02-18T05:41:00,mfh,40.88
2024-02-18T05:42:00,mfh,40.74
2024-02-18T05:43:00,mfh,41.01
2024-02-18T05:44:00,mfh,40.75
2024-02-18T05:45:00,mfh,40.01
2024-02-18T05:46:00,mfh,39.82
2024-02-18T05:47:00,mfh,40.92
2024-02-18T05:48:00,mfh,40.50
2024-02-18T05:49:00,mfh,40.55
2024-02-18T05:50:00,mfh,40.73
2024-02-18T05:51:00,mfh,40.60
2024-02-18T05:52:00,mfh,42.36
2024-02-18T05:53:00,mfh,41.24
2024-02-18T05:54:00,mfh,41.55
2024-02-18T05:55:00,mfh,40.36
2024-02-18T05:56:00,mfh,40.41
2024-02-18T05:57:00,mfh,40.20
2024-02-18T05:58:00,mfh,40.39
2024-02-18T05:59:00,mfh,40.33
2024-02-18T06:00:00,mfh,40.35
2024-02-18T06:01:00,mfh,40.37
2024-02-18T06:02:00,mfh,40.70
2024-02-18T06:03:00,mfh,40.91
2024-02-18T06:04:00,mfh,39.94
2024-02-18T06:05:00,mfh,40.54
2024-02-18T06:06:00,mfh,39.87
2024-02-18T06:07:00,mfh,41.04
2024-02-18T06:08:00,mfh,40.49
2024-02-18T06:09:00,mfh,41.53
2024-02-18T06:10:00,mfh,40.65
2024-02-18T06:11:00,mfh,40.31
2024-02-18T06:12:00,mfh,40.34
2024-02-18T06:13:00,mfh,40.33
2024-02-18T06:14:00,mfh,39.82
2024-02-18T06:15:00,mfh,40.78
2024-02-18T06:16:00,mfh,40.85
2024-02-18T06:17:00,mfh,40.83
2024-02-18T06:18:00,mfh,41.28
2024-02-18T06:19:00,mfh,41.45
2024-02-18T06:20:00,mfh,41.43
2024-02-18T06:21:00,mfh,40.61
2024-02-18T06:22:00,mfh,40.57
2024-02-18T06:23:00,mfh,40.64
2024-02-18T06:24:00,mfh,39.98
2024-02-18T06:25:00,mfh,40.52
2024-02-18T06:26:00,mfh,40.12
2024-02-18T06:27:00,mfh,40.97
2024-02-18T06:28:00,mfh,41.70
2024-02-18T06:29:00,mfh,40.90
2024-02-18T06:30:00,mfh,40.91
2024-02-18T06:31:00,mfh,41.02
2024-02-18T06:32:00,mfh,41.34
2024-02-18T06:33:00,mfh,40.38
2024-02-18T06:34:00,mfh,40.38
2024-02-18T06:35:00,mfh,40.34
2024-02-18T06:36:00,mfh,40.35
2024-02-18T06:37:00,mfh,40.82
2024-02-18T06:38:00,mfh,40.92
2024-02-18T06:39:00,mfh,41.76
2024-02-18T06:40:00,mfh,40.35
2024-02-18T06:41:00,mfh,40.57
2024-02-18T06:42:00,mfh,40.01
2024-02-18T06:43:00,mfh,39.20
2024-02-18T06:44:00,mfh,39.11
2024-02-18T06:45:00,mfh,39.31
2024-02-18T06:46:00,mfh,40.71
2024-02-18T06:47:00,mfh,39.79
2024-02-18T06:48:00,mfh,39.82
2024-02-18T06:49:00,mfh,40.78
2024-02-18T06:50:00,mfh,39.71
2024-02-18T06:51:00,mfh,39.88
2024-02-18T06:52:00,mfh,39.87
2024-02-18T06:53:00,mfh,39.03
2024-02-18T06:54:00,mfh,39.09
2024-02-18T06:55:00,mfh,39.72
2024-02-18T06:56:00,mfh,39.78
2024-02-18T06:57:00,mfh,39.82
2024-02-18T06:58:00,mfh,40.40
2024-02-18T06:59:00,mfh,42.21
2024-02-18T07:00:00,mfh,43.75
2024-02-18T07:01:00,mfh,43.42
2024-02-18T07:02:00,mfh,44.45
2024-02-18T07:03:00,mfh,43.80
2024-02-18T07:04:00,mfh,45.14
2024-02-18T07:05:00,mfh,44.07
2024-02-18T07:06:00,mfh,44.01
2024-02-18T07:07:00,mfh,44.09
2024-02-18T07:08:00,mfh,45.45
2024-02-18T07:09:00,mfh,44.63
2024-02-18T07:10:00,mfh,44.18
2024-02-18T07:11:00,mfh,44.65
2024-02-18T07:12:00,mfh,43.36
2024-02-18T07:13:00,mfh,43.20
2024-02-18T07:14:00,mfh,44.43
2024-02-18T07:15:00,mfh,45.24
2024-02-18T07:16:00,mfh,45.30
2024-02-18T07:17:00,mfh,44.00
2024-02-18T07:18:00,mfh,44.39
2024-02-18T07:19:00,mfh,43.80
2024-02-18T07:20:00,mfh,43.12
2024-02-18T07:21:00,mfh,43.08
2024-02-18T07:22:00,mfh,43.28
2024-02-18T07:23:00,mfh,43.30
2024-02-18T07:24:00,mfh,44.57
2024-02-18T07:25:00,mfh,44.11
2024-02-18T07:26:00,mfh,44.40
2024-02-18T07:27:00,mfh,44.59
2024-02-18T07:28:00,mfh,44.70
2024-02-18T07:29:00,mfh,44.36
2024-02-18T07:30:00,mfh,44.27
2024-02-18T07:31:00,mfh,44.10
2024-02-18T07:32:00,mfh,44.35
2024-02-18T07:33:00,mfh,44.68
2024-02-18T07:34:00,mfh,45.24
2024-02-18T07:35:00,mfh,45.06
2024-02-18T07:36:00,mfh,44.94
2024-02-18T07:37:00,mfh,44.07
2024-02-18T07:38:00,mfh,43.58
2024-02-18T07:39:00,mfh,43.35
2024-02-18T07:40:00,mfh,42.80
2024-02-18T07:41:00,mfh,42.91
2024-02-18T07:42:00,mfh,42.80
2024-02-18T07:43:00,mfh,43.30
2024-02-18T07:44:00,mfh,43.29
2024-02-18T07:45:00,mfh,43.14
2024-02-18T07:46:00,mfh,43.17
2024-02-18T07:47:00,mfh,43.61
2024-02-18T07:48:00,mfh,44.42
2024-02-18T07:49:00,mfh,43.74
2024-02-18T07:50:00,mfh,43.49
2024-02-18T07:51:00,mfh,43.57
2024-02-18T07:52:00,mfh,43.45
2024-02-18T07:53:00,mfh,44.07
2024-02-18T07:54:00,mfh,44.13
2024-02-18T07:55:00,mfh,43.94
2024-02-18T07:56:00,mfh,42.99
2024-02-18T07:57:00,mfh,42.93
2024-02-18T07:58:00,mfh,43.08
2024-02-18T07:59:00,mfh,42.16
2024-02-18T08:00:00,mfh,42.35
2024-02-18T08:01:00,mfh,42.14
2024-02-18T08:02:00,mfh,43.41
2024-02-18T08:03:00,mfh,43.56
2024-02-18T08:04:00,mfh,44.75
2024-02-18T08:05:00,mfh,43.73
2024-02-18T08:06:00,mfh,43.77
2024-02-18T08:07:00,mfh,43.96
2024-02-18T08:08:00,mfh,43.48
2024-02-18T08:09:00,mfh,42.88
2024-02-18T08:10:00,mfh,42.97
2024-02-18T08:11:00,mfh,43.43
2024-02-18T08:12:00,mfh,44.06
2024-02-18T08:13:00,mfh,43.95
2024-02-18T08:14:00,mfh,43.30
2024-02-18T08:15:00,mfh,43.33
2024-02-18T08:16:00,mfh,43.44
2024-02-18T08:17:00,mfh,43.30
2024-02-18T08:18:00,mfh,42.75
2024-02-18T08:19:00,mfh,43.59
2024-02-18T08:20:00,mfh,43.37
2024-02-18T08:21:00,mfh,43.07
2024-02-18T08:22:00,mfh,43.82
2024-02-18T08:23:00,mfh,43.77
2024-02-18T08:24:00,mfh,43.53
2024-02-18T08:25:00,mfh,44.37
2024-02-18T08:26:00,mfh,44.85
2024-02-18T08:27:00,mfh,44.61
2024-02-18T08:28:00,mfh,44.02
2024-02-18T08:29:00,mfh,43.88
2024-02-18T08:30:00,mfh,43.94
2024-02-18T08:31:00,mfh,50.03
2024-02-18T08:32:00,mfh,50.59
2024-02-18T08:33:00,mfh,50.57
2024-02-18T08:34:00,mfh,50.68
2024-02-18T08:35:00,mfh,50.56
2024-02-18T08:36:00,mfh,50.78
2024-02-18T08:37:00,mfh,50.78
2024-02-18T08:38:00,mfh,50.57
2024-02-18T08:39:00,mfh,50.61
2024-02-18T08:40:00,mfh,51.16
2024-02-18T08:41:00,mfh,50.62
2024-02-18T08:42:00,mfh,50.59
2024-02-18T08:43:00,mfh,50.56
2024-02-18T08:44:00,mfh,50.13
2024-02-18T08:45:00,mfh,49.95
2024-02-18T08:46:00,mfh,51.20
2024-02-18T08:47:00,mfh,49.71
2024-02-18T08:48:00,mfh,49.70
2024-02-18T08:49:00,mfh,49.89
2024-02-18T08:50:00,mfh,50.07
2024-02-18T08:51:00,mfh,50.86
2024-02-18T08:52:00,mfh,50.82
2024-02-18T08:53:00,mfh,50.35
2024-02-18T08:54:00,mfh,50.33
2024-02-18T08:55:00,mfh,50.41
2024-02-18T08:56:00,mfh,50.62
2024-02-18T08:57:00,mfh,50.94
2024-02-18T08:58:00,mfh,50.45
2024-02-18T08:59:00,mfh,50.67
2024-02-18T09:00:00,mfh,54.87
2024-02-18T09:01:00,mfh,54.91
2024-02-18T09:02:00,mfh,54.98
2024-02-18T09:03:00,mfh,54.10
2024-02-18T09:04:00,mfh,54.33
2024-02-18T09:05:00,mfh,54.63
2024-02-18T09:06:00,mfh,54.74
2024-02-18T09:07:00,mfh,55.07
2024-02-18T09:08:00,mfh,55.09
2024-02-18T09:09:00,mfh,61.56
2024-02-18T09:10:00,mfh,61.30
2024-02-18T09:11:00,mfh,61.96
2024-02-18T09:12:00,mfh,61.97
2024-02-18T09:13:00,mfh,61.25
2024-02-18T09:14:00,mfh,61.08
2024-02-18T09:15:00,mfh,61.18
2024-02-18T09:16:00,mfh,57.17
2024-02-18T09:17:00,mfh,56.68
2024-02-18T09:18:00,mfh,56.52
2024-02-18T09:19:00,mfh,61.12
2024-02-18T09:20:00,mfh,61.59
2024-02-18T09:21:00,mfh,61.36
2024-02-18T09:22:00,mfh,61.70
2024-02-18T09:23:00,mfh,73.03
2024-02-18T09:24:00,mfh,73.21
2024-02-18T09:25:00,mfh,73.70
2024-02-18T09:26:00,mfh,73.44
2024-02-18T09:27:00,mfh,73.85
2024-02-18T09:28:00,mfh,71.62
2024-02-18T09:29:00,mfh,71.52
2024-02-18T09:30:00,mfh,71.67
2024-02-18T09:31:00,mfh,70.94
2024-02-18T09:32:00,mfh,70.69
2024-02-18T09:33:00,mfh,70.60
2024-02-18T09:34:00,mfh,70.73
2024-02-18T09:35:00,mfh,71.54
2024-02-18T09:36:00,mfh,73.83
2024-02-18T09:37:00,mfh,73.36
2024-02-18T09:38:00,mfh,72.87
2024-02-18T09:39:00,mfh,77.60
2024-02-18T09:40:00,mfh,78.39
2024-02-18T09:41:00,mfh,79.08
2024-02-18T09:42:00,mfh,79.13
2024-02-18T09:43:00,mfh,78.95
2024-02-18T09:44:00,mfh,79.20
2024-02-18T09:45:00,mfh,79.16
2024-02-18T09:46:00,mfh,79.23
2024-02-18T09:47:00,mfh,79.05
2024-02-18T09:48:00,mfh,78.99
2024-02-18T09:49:00,mfh,79.06
2024-02-18T09:50:00,mfh,79.24
2024-02-18T09:51:00,mfh,79.45
2024-02-18T09:52:00,mfh,79.57
2024-02-18T09:53:00,mfh,79.12
2024-02-18T09:54:00,mfh,78.99
2024-02-18T09:55:00,mfh,79.70
2024-02-18T09:56:00,mfh,79.84
2024-02-18T09:57:00,mfh,79.27
2024-02-18T09:58:00,mfh,80.53
2024-02-18T09:59:00,mfh,80.63
2024-02-18T10:00:00,mfh,80.54
2024-02-18T10:01:00,mfh,81.02
2024-02-18T10:02:00,mfh,79.51
2024-02-18T10:03:00,mfh,78.49
2024-02-18T10:04:00,mfh,78.53
2024-02-18T10:05:00,mfh,78.53
2024-02-18T10:06:00,mfh,79.41
2024-02-18T10:07:00,mfh,80.51
2024-02-18T10:08:00,mfh,79.72
2024-02-18T10:09:00,mfh,80.23
2024-02-18T10:10:00,mfh,79.61
2024-02-18T10:11:00,mfh,79.60
2024-02-18T10:12:00,mfh,80.18
2024-02-18T10:13:00,mfh,80.55
2024-02-18T10:14:00,mfh,79.61
2024-02-18T10:15:00,mfh,79.89
2024-02-18T10:16:00,mfh,79.72
2024-02-18T10:17:00,mfh,79.79
2024-02-18T10:18:00,mfh,79.47
2024-02-18T10:19:00,mfh,79.33
2024-02-18T10:20:00,mfh,79.75
2024-02-18T10:21:00,mfh,79.19
2024-02-18T10:22:00,mfh,79.58
2024-02-18T10:23:00,mfh,79.38
2024-02-18T10:24:00,mfh,79.06
2024-02-18T10:25:00,mfh,79.11
2024-02-18T10:26:00,mfh,79.75
2024-02-18T10:27:00,mfh,79.13
2024-02-18T10:28:00,mfh,79.01
2024-02-18T10:29:00,mfh,78.92
2024-02-18T10:30:00,mfh,80.10
2024-02-18T10:31:00,mfh,79.22
2024-02-18T10:32:00,mfh,79.33
2024-02-18T10:33:00,mfh,79.41
2024-02-18T10:34:00,mfh,80.03
2024-02-18T10:35:00,mfh,79.68
2024-02-18T10:36:00,mfh,79.61
2024-02-18T10:37:00,mfh,79.63
2024-02-18T10:38:00,mfh,79.78
2024-02-18T10:39:00,mfh,79.63
2024-02-18T10:40:00,mfh,79.48
2024-02-18T10:41:00,mfh,79.91
2024-02-18T10:42:00,mfh,79.50
2024-02-18T10:43:00,mfh,79.65
2024-02-18T10:44:00,mfh,78.64
2024-02-18T10:45:00,mfh,78.69
2024-02-18T10:46:00,mfh,80.06
2024-02-18T10:47:00,mfh,80.95
2024-02-18T10:48:00,mfh,81.18
2024-02-18T10:49:00,mfh,81.11
2024-02-18T10:50:00,mfh,80.73
2024-02-18T10:51:00,mfh,80.25
2024-02-18T10:52:00,mfh,80.67
2024-02-18T10:53:00,mfh,80.68
2024-02-18T10:54:00,mfh,81.54
2024-02-18T10:55:00,mfh,80.78
2024-02-18T10:56:00,mfh,80.98
2024-02-18T10:57:00,mfh,80.35
2024-02-18T10:58:00,mfh,80.95
2024-02-18T10:59:00,mfh,80.51
2024-02-18T11:00:00,mfh,81.08
2024-02-18T11:01:00,mfh,80.63
2024-02-18T11:02:00,mfh,80.91
2024-02-18T11:03:00,mfh,80.40
2024-02-18T11:04:00,mfh,79.70
2024-02-18T11:05:00,mfh,80.13
2024-02-18T11:06:00,mfh,79.92
2024-02-18T11:07:00,mfh,80.03
2024-02-18T11:08:00,mfh,80.11
2024-02-18T11:09:00,mfh,78.94
2024-02-18T11:10:00,mfh,78.92
2024-02-18T11:11:00,mfh,78.96
2024-02-18T11:12:00,mfh,79.03
2024-02-18T11:13:00,mfh,78.73
2024-02-18T11:14:00,mfh,79.15
2024-02-18T11:15:00,mfh,79.34
2024-02-18T11:16:00,mfh,79.41
2024-02-18T11:17:00,mfh,79.24
2024-02-18T11:18:00,mfh,77.74
2024-02-18T11:19:00,mfh,77.79
2024-02-18T11:20:00,mfh,78.30
2024-02-18T11:21:00,mfh,78.62
2024-02-18T11:22:00,mfh,78.81
2024-02-18T11:23:00,mfh,78.39
2024-02-18T11:24:00,mfh,78.58
2024-02-18T11:25:00,mfh,78.53
2024-02-18T11:26:00,mfh,78.60
2024-02-18T11:27:00,mfh,78.97
2024-02-18T11:28:00,mfh,79.20
2024-02-18T11:29:00,mfh,79.22
2024-02-18T11:30:00,mfh,78.73
2024-02-18T11:31:00,mfh,78.66
2024-02-18T11:32:00,mfh,78.92
2024-02-18T11:33:00,mfh,79.10
2024-02-18T11:34:00,mfh,78.73
2024-02-18T11:35:00,mfh,78.49
2024-02-18T11:36:00,mfh,77.75
2024-02-18T11:37:00,mfh,78.51
2024-02-18T11:38:00,mfh,78.49
2024-02-18T11:39:00,mfh,78.72
2024-02-18T11:40:00,mfh,79.31
2024-02-18T11:41:00,mfh,78.98
2024-02-18T11:42:00,mfh,79.50
2024-02-18T11:43:00,mfh,79.64
2024-02-18T11:44:00,mfh,79.26
2024-02-18T11:45:00,mfh,79.83
2024-02-18T11:46:00,mfh,79.73
2024-02-18T11:47:00,mfh,81.46
2024-02-18T11:48:00,mfh,80.15
2024-02-18T11:49:00,mfh,80.39
2024-02-18T11:50:00,mfh,80.18
2024-02-18T11:51:00,mfh,80.82
2024-02-18T11:52:00,mfh,80.43
2024-02-18T11:53:00,mfh,79.87
2024-02-18T11:54:00,mfh,79.64
2024-02-18T11:55:00,mfh,80.02
2024-02-18T11:56:00,mfh,77.88
2024-02-18T11:57:00,mfh,78.01
2024-02-18T11:58:00,mfh,74.80
2024-02-18T11:59:00,mfh,74.04
2024-02-18T12:00:00,mfh,74.61
2024-02-18T12:01:00,mfh,77.79
2024-02-18T12:02:00,mfh,78.11
2024-02-18T12:03:00,mfh,77.56
2024-02-18T12:04:00,mfh,77.51
2024-02-18T12:05:00,mfh,78.07
2024-02-18T12:06:00,mfh,77.13
2024-02-18T12:07:00,mfh,77.40
2024-02-18T12:08:00,mfh,76.96
2024-02-18T12:09:00,mfh,76.86
2024-02-18T12:10:00,mfh,76.89
2024-02-18T12:11:00,mfh,76.05
2024-02-18T12:12:00,mfh,76.65
2024-02-18T12:13:00,mfh,76.37
2024-02-18T12:14:00,mfh,76.74
2024-02-18T12:15:00,mfh,76.81
2024-02-18T12:16:00,mfh,76.94
2024-02-18T12:17:00,mfh,76.96
2024-02-18T12:18:00,mfh,76.36
2024-02-18T12:19:00,mfh,76.54
2024-02-18T12:20:00,mfh,76.28
2024-02-18T12:21:00,mfh,69.44
2024-02-18T12:22:00,mfh,65.99
2024-02-18T12:23:00,mfh,67.51
2024-02-18T12:24:00,mfh,68.90
2024-02-18T12:25:00,mfh,68.19
2024-02-18T12:26:00,mfh,68.41
2024-02-18T12:27:00,mfh,62.79
2024-02-18T12:28:00,mfh,62.48
2024-02-18T12:29:00,mfh,61.42
2024-02-18T12:30:00,mfh,61.62
2024-02-18T12:31:00,mfh,61.59
2024-02-18T12:32:00,mfh,62.01
2024-02-18T12:33:00,mfh,62.27
2024-02-18T12:34:00,mfh,61.77
2024-02-18T12:35:00,mfh,61.73
2024-02-18T12:36:00,mfh,61.63
2024-02-18T12:37:00,mfh,59.77
2024-02-18T12:38:00,mfh,59.88
2024-02-18T12:39:00,mfh,60.69
2024-02-18T12:40:00,mfh,60.08
2024-02-18T12:41:00,mfh,60.70
2024-02-18T12:42:00,mfh,59.84
2024-02-18T12:43:00,mfh,60.29
2024-02-18T12:44:00,mfh,55.45
2024-02-18T12:45:00,mfh,54.71
2024-02-18T12:46:00,mfh,54.48
2024-02-18T12:47:00,mfh,55.04
2024-02-18T12:48:00,mfh,55.15
2024-02-18T12:49:00,mfh,56.00
2024-02-18T12:50:00,mfh,55.83
2024-02-18T12:51:00,mfh,55.85
2024-02-18T12:52:00,mfh,56.17
2024-02-18T12:53:00,mfh,55.47
2024-02-18T12:54:00,mfh,55.13
2024-02-18T12:55:00,mfh,55.39
2024-02-18T12:56:00,mfh,54.91
2024-02-18T12:57:00,mfh,55.47
2024-02-18T12:58:00,mfh,56.00
2024-02-18T12:59:00,mfh,55.40
2024-02-18T13:00:00,mfh,55.48
2024-02-18T13:01:00,mfh,57.04
2024-02-18T13:02:00,mfh,55.54
2024-02-18T13:03:00,mfh,56.04
2024-02-18T13:04:00,mfh,55.44
2024-02-18T13:05:00,mfh,55.41
2024-02-18T13:06:00,mfh,55.51
2024-02-18T13:07:00,mfh,56.09
2024-02-18T13:08:00,mfh,56.30
2024-02-18T13:09:00,mfh,56.38
2024-02-18T13:10:00,mfh,56.03
2024-02-18T13:11:00,mfh,56.07
2024-02-18T13:12:00,mfh,56.20
2024-02-18T13:13:00,mfh,56.36
2024-02-18T13:14:00,mfh,56.68
2024-02-18T13:15:00,mfh,56.18
2024-02-18T13:16:00,mfh,57.49
2024-02-18T13:17:00,mfh,57.11
2024-02-18T13:18:00,mfh,56.90